SPACEBEE-156 (55099 NORAD) Tracking and Keplerian Element Data

This shows tracking and keplerian element data for the satellite.

Feedback or suggestion? Click here.




ElementValue
Catalog55099
NameSPACEBEE-156
Epoch Orbit1879
Epoch Day126.63172228
Epoch Year2023
RAAN187.1438
Inclination97.48
Eccentricity0.0017036
Argument of Perigee144.3226
Mean Anonmoly215.915
Mean Motion15.18647202
Decay Rate0.00025753
L11 55099U 23001CU 23126.63172228 .00025753 00000+0 12386-2 0 9992
L22 55099 97.4800 187.1438 0017036 144.3226 215.9150 15.18647202 18793



Live tracking and technical data element details for SPACEBEE-156 (NORAD 55099). SPACEBEE-156 can be tracked NOW for your location showing map with azimuth and elevation plus other details from your city location.







IsCatalogInMostPopularTable: catalog: 55099, numindb: -1

Insert: records affected: 1


GetName: 55099 SPACEBEE-156

Hit Count: inserted at: Mon, 05 Jun 2023 21:21:08 GMT